Time,TemperatureF,DewpointF,PressureIn,WindDirection,WindDirectionDegrees,WindSpeedMPH,WindSpeedGustMPH,Humidity,HourlyPrecipIn,Conditions,Clouds,dailyrainin,SoftwareType,DateUTC
2013-05-21 00:01:00,58.1,54.9,29.57,SSE,158,0.2,2.9,89,0.00,,,0.00,WUHU216HW,2013-05-21 05:01:00,
2013-05-21 00:06:00,58.1,54.9,29.57,ESE,113,0.7,2.9,89,0.00,,,0.00,WUHU216HW,2013-05-21 05:06:00,
2013-05-21 00:11:00,58.1,54.9,29.57,ESE,113,0.9,2.0,89,0.00,,,0.00,WUHU216HW,2013-05-21 05:11:00,
2013-05-21 00:16:00,58.1,54.9,29.57,ENE,68,1.1,2.0,89,0.00,,,0.00,WUHU216HW,2013-05-21 05:16:00,
2013-05-21 00:21:00,58.1,54.9,29.57,ESE,113,0.7,2.0,89,0.00,,,0.00,WUHU216HW,2013-05-21 05:21:00,
2013-05-21 00:26:00,58.1,54.9,29.57,ESE,113,0.7,2.0,89,0.00,,,0.00,WUHU216HW,2013-05-21 05:26:00,
2013-05-21 00:31:00,58.3,55.4,29.57,ESE,113,2.9,3.1,90,0.00,,,0.00,WUHU216HW,2013-05-21 05:31:00,
2013-05-21 00:36:00,58.3,55.4,29.57,ESE,113,0.4,3.1,90,0.00,,,0.00,WUHU216HW,2013-05-21 05:36:00,
2013-05-21 00:41:00,58.1,54.9,29.57,ESE,113,0.2,2.9,89,0.00,,,0.00,WUHU216HW,2013-05-21 05:41:00,
2013-05-21 00:46:00,58.0,54.7,29.56,ENE,68,0.4,1.6,89,0.00,,,0.00,WUHU216HW,2013-05-21 05:46:00,
2013-05-21 00:51:00,58.0,54.7,29.56,ENE,68,0.7,1.3,89,0.00,,,0.00,WUHU216HW,2013-05-21 05:51:00,
2013-05-21 00:56:00,58.0,54.7,29.56,ENE,68,0.0,1.3,89,0.00,,,0.00,WUHU216HW,2013-05-21 05:56:00,
2013-05-21 01:01:00,58.0,54.7,29.56,ESE,113,0.9,1.3,89,0.00,,,0.00,WUHU216HW,2013-05-21 06:01:00,
2013-05-21 01:06:00,58.1,55.3,29.56,SE,135,1.6,2.2,90,0.00,,,0.00,WUHU216HW,2013-05-21 06:06:00,
2013-05-21 01:11:00,58.1,55.3,29.56,ESE,113,1.8,2.5,90,0.00,,,0.00,WUHU216HW,2013-05-21 06:11:00,
2013-05-21 01:16:00,58.1,55.3,29.56,SE,135,1.1,2.5,90,0.00,,,0.00,WUHU216HW,2013-05-21 06:16:00,
2013-05-21 01:21:00,58.0,55.1,29.55,ESE,113,0.7,2.2,90,0.00,,,0.00,WUHU216HW,2013-05-21 06:21:00,
2013-05-21 01:26:00,58.0,55.1,29.55,East,90,1.3,2.2,90,0.00,,,0.00,WUHU216HW,2013-05-21 06:26:00,
2013-05-21 01:31:00,58.1,55.3,29.55,ENE,68,0.2,2.5,90,0.00,,,0.00,WUHU216HW,2013-05-21 06:31:00,
2013-05-21 01:36:00,58.0,55.1,29.54,ESE,113,0.0,2.5,90,0.00,,,0.00,WUHU216HW,2013-05-21 06:36:00,
2013-05-21 01:41:00,57.6,54.4,29.54,NNE,23,0.0,0.4,89,0.00,,,0.00,WUHU216HW,2013-05-21 06:41:00,
2013-05-21 01:46:00,57.4,54.2,29.54,ESE,113,0.0,0.4,89,0.00,,,0.00,WUHU216HW,2013-05-21 06:46:00,
2013-05-21 01:51:00,57.2,54.4,29.54,East,90,1.1,1.3,90,0.00,,,0.00,WUHU216HW,2013-05-21 06:51:00,
2013-05-21 01:56:00,57.6,55.0,29.54,ENE,68,1.1,2.0,91,0.00,,,0.00,WUHU216HW,2013-05-21 06:56:00,
2013-05-21 02:01:00,57.6,55.0,29.54,ENE,68,1.1,2.0,91,0.00,,,0.00,WUHU216HW,2013-05-21 07:01:00,
2013-05-21 02:06:00,57.6,55.0,29.54,East,90,1.1,2.0,91,0.00,,,0.00,WUHU216HW,2013-05-21 07:06:00,
2013-05-21 02:11:00,57.6,55.0,29.54,ESE,113,1.6,2.5,91,0.00,,,0.00,WUHU216HW,2013-05-21 07:11:00,
2013-05-21 02:16:00,57.6,55.0,29.54,ESE,113,0.4,2.5,91,0.00,,,0.00,WUHU216HW,2013-05-21 07:16:00,
2013-05-21 02:21:00,57.6,55.0,29.55,East,90,0.4,1.8,91,0.00,,,0.00,WUHU216HW,2013-05-21 07:21:00,
2013-05-21 02:26:00,57.4,54.8,29.54,ENE,68,1.6,1.6,91,0.00,,,0.00,WUHU216HW,2013-05-21 07:26:00,
2013-05-21 02:31:00,57.4,54.8,29.54,East,90,1.6,2.2,91,0.00,,,0.00,WUHU216HW,2013-05-21 07:31:00,
2013-05-21 02:36:00,57.4,54.8,29.54,ESE,113,0.9,2.2,91,0.00,,,0.00,WUHU216HW,2013-05-21 07:36:00,
2013-05-21 02:41:00,57.4,54.8,29.54,ENE,68,0.4,1.6,91,0.00,,,0.00,WUHU216HW,2013-05-21 07:41:00,
2013-05-21 02:46:00,57.2,54.6,29.54,East,90,1.3,1.3,91,0.00,,,0.00,WUHU216HW,2013-05-21 07:46:00,
2013-05-21 02:51:00,57.2,54.6,29.54,ESE,113,0.9,1.8,91,0.00,,,0.00,WUHU216HW,2013-05-21 07:51:00,
2013-05-21 02:56:00,57.2,54.6,29.54,East,90,0.9,1.8,91,0.00,,,0.00,WUHU216HW,2013-05-21 07:56:00,
2013-05-21 03:01:00,57.1,54.5,29.54,ESE,113,0.0,1.8,91,0.00,,,0.00,WUHU216HW,2013-05-21 08:01:00,
2013-05-21 03:06:00,56.9,54.3,29.54,East,90,0.4,1.1,91,0.00,,,0.00,WUHU216HW,2013-05-21 08:06:00,
2013-05-21 03:11:00,56.9,54.5,29.54,East,90,0.9,1.3,92,0.00,,,0.00,WUHU216HW,2013-05-21 08:11:00,
2013-05-21 03:16:00,57.1,54.7,29.54,East,90,0.9,1.8,92,0.00,,,0.00,WUHU216HW,2013-05-21 08:16:00,
2013-05-21 03:21:00,57.1,54.7,29.54,East,90,1.8,1.8,92,0.00,,,0.00,WUHU216HW,2013-05-21 08:21:00,
2013-05-21 03:26:00,57.1,54.7,29.54,East,90,0.7,1.8,92,0.00,,,0.00,WUHU216HW,2013-05-21 08:26:00,
2013-05-21 03:31:00,57.1,54.7,29.54,East,90,1.6,1.8,92,0.00,,,0.00,WUHU216HW,2013-05-21 08:31:00,
2013-05-21 03:36:00,57.1,54.7,29.54,ENE,68,0.4,2.5,92,0.00,,,0.00,WUHU216HW,2013-05-21 08:36:00,
2013-05-21 03:41:00,57.1,54.7,29.54,East,90,0.7,2.5,92,0.00,,,0.00,WUHU216HW,2013-05-21 08:41:00,
2013-05-21 03:46:00,57.2,54.9,29.54,ESE,113,0.2,2.5,92,0.00,,,0.00,WUHU216HW,2013-05-21 08:46:00,
2013-05-21 03:51:00,57.2,54.9,29.54,East,90,0.9,2.5,92,0.00,,,0.00,WUHU216HW,2013-05-21 08:51:00,
2013-05-21 03:56:00,57.2,54.9,29.54,NE,45,2.2,2.5,92,0.00,,,0.00,WUHU216HW,2013-05-21 08:56:00,
2013-05-21 04:01:00,57.4,55.1,29.54,East,90,2.0,2.5,92,0.00,,,0.00,WUHU216HW,2013-05-21 09:01:00,
2013-05-21 04:06:00,57.4,55.1,29.54,ENE,68,0.4,3.4,92,0.00,,,0.00,WUHU216HW,2013-05-21 09:06:00,
2013-05-21 04:11:00,57.4,55.1,29.54,East,90,1.8,3.4,92,0.00,,,0.00,WUHU216HW,2013-05-21 09:11:00,
2013-05-21 04:16:00,57.4,55.1,29.54,ENE,68,0.4,2.2,92,0.00,,,0.00,WUHU216HW,2013-05-21 09:16:00,
2013-05-21 04:21:00,57.4,55.1,29.54,East,90,0.4,1.8,92,0.00,,,0.00,WUHU216HW,2013-05-21 09:21:00,
2013-05-21 04:26:00,57.4,55.1,29.54,East,90,0.4,1.6,92,0.00,,,0.00,WUHU216HW,2013-05-21 09:26:00,
2013-05-21 04:31:00,57.4,55.1,29.54,SE,135,1.1,1.6,92,0.00,,,0.00,WUHU216HW,2013-05-21 09:31:00,
2013-05-21 04:36:00,57.6,55.3,29.54,ESE,113,1.1,2.9,92,0.00,,,0.00,WUHU216HW,2013-05-21 09:36:00,
2013-05-21 04:41:00,57.6,55.3,29.54,SE,135,0.4,2.9,92,0.00,,,0.00,WUHU216HW,2013-05-21 09:41:00,
2013-05-21 04:46:00,57.6,55.3,29.54,East,90,1.6,2.0,92,0.00,,,0.00,WUHU216HW,2013-05-21 09:46:00,
2013-05-21 04:51:00,57.6,55.3,29.54,East,90,1.8,2.7,92,0.00,,,0.00,WUHU216HW,2013-05-21 09:51:00,
2013-05-21 04:56:00,57.6,55.3,29.54,ESE,113,0.4,2.7,92,0.00,,,0.00,WUHU216HW,2013-05-21 09:56:00,
2013-05-21 05:02:00,57.6,55.3,29.54,East,90,1.6,2.5,92,0.00,,,0.00,WUHU216HW,2013-05-21 10:02:00,
2013-05-21 05:07:00,57.8,55.4,29.54,ESE,113,1.8,2.5,92,0.00,,,0.00,WUHU216HW,2013-05-21 10:07:00,
2013-05-21 05:12:00,57.8,55.4,29.54,East,90,1.1,3.6,92,0.00,,,0.00,WUHU216HW,2013-05-21 10:12:00,
2013-05-21 05:17:00,57.8,55.4,29.53,NNE,23,1.1,3.6,92,0.00,,,0.00,WUHU216HW,2013-05-21 10:17:00,
2013-05-21 05:22:00,57.8,55.4,29.54,East,90,0.9,2.7,92,0.00,,,0.00,WUHU216HW,2013-05-21 10:22:00,
2013-05-21 05:27:00,57.8,55.4,29.54,East,90,1.1,1.8,92,0.00,,,0.00,WUHU216HW,2013-05-21 10:27:00,
2013-05-21 05:32:00,57.8,55.4,29.54,East,90,1.1,2.0,92,0.00,,,0.00,WUHU216HW,2013-05-21 10:32:00,
2013-05-21 05:37:00,57.8,55.4,29.54,East,90,0.9,3.4,92,0.00,,,0.00,WUHU216HW,2013-05-21 10:37:00,
2013-05-21 05:42:00,57.8,55.4,29.54,ESE,113,1.8,3.4,92,0.00,,,0.00,WUHU216HW,2013-05-21 10:42:00,
2013-05-21 05:47:00,58.0,55.6,29.54,ESE,113,1.8,2.9,92,0.00,,,0.00,WUHU216HW,2013-05-21 10:47:00,
2013-05-21 05:52:00,58.0,55.6,29.54,NE,45,0.9,2.9,92,0.00,,,0.00,WUHU216HW,2013-05-21 10:52:00,
2013-05-21 05:57:00,58.0,55.6,29.55,NE,45,2.5,2.9,92,0.00,,,0.00,WUHU216HW,2013-05-21 10:57:00,
2013-05-21 06:02:00,58.0,55.6,29.55,East,90,2.5,2.9,92,0.00,,,0.00,WUHU216HW,2013-05-21 11:02:00,
2013-05-21 06:07:00,58.1,55.8,29.55,ENE,68,2.2,2.5,92,0.00,,,0.00,WUHU216HW,2013-05-21 11:07:00,
2013-05-21 06:12:00,58.1,55.8,29.55,ESE,113,0.2,2.5,92,0.00,,,0.00,WUHU216HW,2013-05-21 11:12:00,
2013-05-21 06:17:00,58.3,56.0,29.55,East,90,0.4,2.2,92,0.00,,,0.00,WUHU216HW,2013-05-21 11:17:00,
2013-05-21 06:22:00,58.3,56.0,29.55,East,90,0.7,2.5,92,0.00,,,0.00,WUHU216HW,2013-05-21 11:22:00,
2013-05-21 06:27:00,58.3,56.0,29.55,East,90,1.1,2.5,92,0.00,,,0.00,WUHU216HW,2013-05-21 11:27:00,
2013-05-21 06:32:00,58.5,56.2,29.55,ENE,68,0.9,2.0,92,0.00,,,0.00,WUHU216HW,2013-05-21 11:32:00,
2013-05-21 06:37:00,58.5,56.2,29.55,ENE,68,0.9,2.0,92,0.00,,,0.00,WUHU216HW,2013-05-21 11:37:00,
2013-05-21 06:42:00,58.5,56.2,29.55,East,90,0.4,1.6,92,0.00,,,0.00,WUHU216HW,2013-05-21 11:42:00,
2013-05-21 06:47:00,58.5,56.2,29.56,East,90,0.0,1.3,92,0.00,,,0.00,WUHU216HW,2013-05-21 11:47:00,
2013-05-21 06:52:00,58.7,56.3,29.55,ESE,113,0.2,1.3,92,0.00,,,0.00,WUHU216HW,2013-05-21 11:52:00,
2013-05-21 06:57:00,58.5,56.2,29.56,ENE,68,0.9,1.1,92,0.00,,,0.00,WUHU216HW,2013-05-21 11:57:00,
2013-05-21 07:02:00,58.7,56.3,29.55,ESE,113,0.4,1.1,92,0.00,,,0.00,WUHU216HW,2013-05-21 12:02:00,
2013-05-21 07:07:00,58.7,56.3,29.55,ENE,68,1.1,1.6,92,0.00,,,0.00,WUHU216HW,2013-05-21 12:07:00,
2013-05-21 07:12:00,58.7,56.3,29.56,East,90,0.7,2.2,92,0.00,,,0.00,WUHU216HW,2013-05-21 12:12:00,
2013-05-21 07:17:00,58.9,56.5,29.56,SSE,158,0.2,2.2,92,0.00,,,0.00,WUHU216HW,2013-05-21 12:17:00,
2013-05-21 07:22:00,58.9,56.5,29.56,East,90,0.4,1.8,92,0.00,,,0.00,WUHU216HW,2013-05-21 12:22:00,
2013-05-21 07:27:00,58.9,56.5,29.56,East,90,0.7,1.8,92,0.00,,,0.00,WUHU216HW,2013-05-21 12:27:00,
2013-05-21 07:32:00,59.0,57.1,29.56,SE,135,1.3,1.8,93,0.00,,,0.00,WUHU216HW,2013-05-21 12:32:00,
2013-05-21 07:37:00,59.0,57.1,29.56,ENE,68,1.3,2.5,93,0.00,,,0.00,WUHU216HW,2013-05-21 12:37:00,
2013-05-21 07:42:00,59.2,56.9,29.56,ESE,113,1.3,3.1,92,0.00,,,0.00,WUHU216HW,2013-05-21 12:42:00,
2013-05-21 07:47:00,59.4,57.1,29.56,East,90,1.1,3.1,92,0.00,,,0.00,WUHU216HW,2013-05-21 12:47:00,
2013-05-21 07:52:00,59.4,57.1,29.56,East,90,0.4,2.9,92,0.00,,,0.00,WUHU216HW,2013-05-21 12:52:00,
2013-05-21 07:57:00,59.6,57.2,29.56,ESE,113,0.0,2.9,92,0.00,,,0.00,WUHU216HW,2013-05-21 12:57:00,
2013-05-21 08:02:00,59.8,57.4,29.56,East,90,0.7,2.0,92,0.00,,,0.00,WUHU216HW,2013-05-21 13:02:00,
2013-05-21 08:07:00,59.8,57.4,29.56,ESE,113,0.4,1.1,92,0.00,,,0.00,WUHU216HW,2013-05-21 13:07:00,
2013-05-21 08:12:00,59.8,57.4,29.56,ESE,113,0.0,1.1,92,0.00,,,0.00,WUHU216HW,2013-05-21 13:12:00,
2013-05-21 08:17:00,59.9,57.6,29.56,ESE,113,0.9,1.1,92,0.00,,,0.00,WUHU216HW,2013-05-21 13:17:00,
2013-05-21 08:22:00,60.1,57.8,29.56,ESE,113,0.0,1.1,92,0.00,,,0.00,WUHU216HW,2013-05-21 13:22:00,
2013-05-21 08:27:00,60.1,57.5,29.56,East,90,0.9,2.5,91,0.00,,,0.00,WUHU216HW,2013-05-21 13:27:00,
2013-05-21 08:32:00,60.1,57.5,29.56,ESE,113,1.1,2.5,91,0.00,,,0.00,WUHU216HW,2013-05-21 13:32:00,
2013-05-21 08:37:00,60.3,57.7,29.56,ENE,68,0.4,2.5,91,0.00,,,0.00,WUHU216HW,2013-05-21 13:37:00,
2013-05-21 08:42:00,60.5,57.9,29.56,SE,135,0.7,1.8,91,0.00,,,0.00,WUHU216HW,2013-05-21 13:42:00,
2013-05-21 08:47:00,60.8,58.2,29.56,ESE,113,0.9,1.8,91,0.00,,,0.00,WUHU216HW,2013-05-21 13:47:00,
2013-05-21 08:52:00,61.0,58.4,29.56,SE,135,1.8,1.8,91,0.00,,,0.00,WUHU216HW,2013-05-21 13:52:00,
2013-05-21 08:57:00,61.2,58.3,29.56,ESE,113,1.3,2.9,90,0.00,,,0.00,WUHU216HW,2013-05-21 13:57:00,
2013-05-21 09:02:00,61.6,58.7,29.57,SSE,158,1.6,2.9,90,0.00,,,0.00,WUHU216HW,2013-05-21 14:02:00,
2013-05-21 09:07:00,61.6,58.7,29.57,SE,135,0.7,2.0,90,0.00,,,0.00,WUHU216HW,2013-05-21 14:07:00,
2013-05-21 09:12:00,61.6,58.3,29.57,WSW,248,1.6,2.0,89,0.00,,,0.00,WUHU216HW,2013-05-21 14:12:00,
2013-05-21 09:17:00,61.6,58.3,29.57,WSW,248,1.8,2.0,89,0.00,,,0.00,WUHU216HW,2013-05-21 14:17:00,
2013-05-21 09:22:00,61.6,58.1,29.57,West,270,1.6,3.4,88,0.00,,,0.00,WUHU216HW,2013-05-21 14:22:00,
2013-05-21 09:27:00,61.6,58.1,29.57,WSW,248,0.9,3.4,88,0.00,,,0.00,WUHU216HW,2013-05-21 14:27:00,
2013-05-21 09:32:00,61.6,58.1,29.57,WSW,248,1.8,2.5,88,0.00,,,0.00,WUHU216HW,2013-05-21 14:32:00,
2013-05-21 09:37:00,61.7,58.5,29.58,WSW,248,0.4,2.0,89,0.00,,,0.00,WUHU216HW,2013-05-21 14:37:00,
2013-05-21 09:42:00,61.9,58.7,29.58,NW,315,0.0,1.8,89,0.00,,,0.00,WUHU216HW,2013-05-21 14:42:00,
2013-05-21 09:47:00,61.9,58.4,29.58,SW,225,1.3,1.8,88,0.00,,,0.00,WUHU216HW,2013-05-21 14:47:00,
2013-05-21 09:52:00,62.1,58.2,29.58,WSW,248,0.9,2.2,87,0.00,,,0.00,WUHU216HW,2013-05-21 14:52:00,
2013-05-21 09:57:00,62.3,58.4,29.58,WSW,248,1.8,2.2,87,0.00,,,0.00,WUHU216HW,2013-05-21 14:57:00,
2013-05-21 10:02:00,62.3,58.4,29.58,WSW,248,0.4,2.2,87,0.00,,,0.00,WUHU216HW,2013-05-21 15:02:00,
2013-05-21 10:07:00,62.5,58.6,29.58,WSW,248,0.4,2.2,87,0.00,,,0.00,WUHU216HW,2013-05-21 15:07:00,
2013-05-21 10:12:00,62.6,58.4,29.58,SW,225,1.1,3.8,86,0.00,,,0.00,WUHU216HW,2013-05-21 15:12:00,
2013-05-21 10:17:00,62.3,58.1,29.58,SW,225,0.7,3.8,86,0.00,,,0.00,WUHU216HW,2013-05-21 15:17:00,
2013-05-21 10:22:00,62.1,57.9,29.59,West,270,3.4,4.0,86,0.00,,,0.00,WUHU216HW,2013-05-21 15:22:00,
2013-05-21 10:27:00,61.9,58.1,29.59,SW,225,0.4,4.0,87,0.00,,,0.00,WUHU216HW,2013-05-21 15:27:00,
2013-05-21 10:32:00,61.9,58.1,29.59,WSW,248,2.5,3.1,87,0.00,,,0.00,WUHU216HW,2013-05-21 15:32:00,
2013-05-21 10:37:00,61.9,57.7,29.59,SSW,203,3.8,3.8,86,0.00,,,0.00,WUHU216HW,2013-05-21 15:37:00,
2013-05-21 10:42:00,61.7,57.2,29.59,WSW,248,2.0,4.7,85,0.00,,,0.00,WUHU216HW,2013-05-21 15:42:00,
2013-05-21 10:47:00,61.6,56.7,29.59,WSW,248,4.7,6.9,84,0.00,,,0.00,WUHU216HW,2013-05-21 15:47:00,
2013-05-21 10:52:00,61.7,56.9,29.59,West,270,2.0,6.9,84,0.00,,,0.00,WUHU216HW,2013-05-21 15:52:00,
2013-05-21 10:57:00,62.1,57.3,29.59,WSW,248,2.0,6.0,84,0.00,,,0.00,WUHU216HW,2013-05-21 15:57:00,
2013-05-21 11:02:00,62.3,57.1,29.59,WSW,248,3.6,3.6,83,0.00,,,0.00,WUHU216HW,2013-05-21 16:02:00,
2013-05-21 11:07:00,62.3,57.1,29.59,WSW,248,0.4,4.5,83,0.00,,,0.00,WUHU216HW,2013-05-21 16:07:00,
2013-05-21 11:12:00,62.8,57.5,29.59,West,270,1.8,4.5,83,0.00,,,0.00,WUHU216HW,2013-05-21 16:12:00,
2013-05-21 11:17:00,63.0,57.4,29.59,WSW,248,2.0,3.4,82,0.00,,,0.00,WUHU216HW,2013-05-21 16:17:00,
2013-05-21 11:22:00,62.8,56.9,29.60,WSW,248,2.5,5.6,81,0.00,,,0.00,WUHU216HW,2013-05-21 16:22:00,
2013-05-21 11:27:00,62.5,56.5,29.60,WSW,248,4.7,5.6,81,0.00,,,0.00,WUHU216HW,2013-05-21 16:27:00,
2013-05-21 11:32:00,62.1,56.5,29.60,WSW,248,1.1,4.7,82,0.00,,,0.00,WUHU216HW,2013-05-21 16:32:00,
2013-05-21 11:37:00,62.5,56.9,29.60,WSW,248,3.8,4.7,82,0.00,,,0.00,WUHU216HW,2013-05-21 16:37:00,
2013-05-21 11:42:00,62.5,57.3,29.60,WSW,248,0.4,3.8,83,0.00,,,0.00,WUHU216HW,2013-05-21 16:42:00,
2013-05-21 11:47:00,62.5,56.5,29.60,WSW,248,1.6,3.8,81,0.00,,,0.00,WUHU216HW,2013-05-21 16:47:00,
2013-05-21 11:52:00,62.6,56.7,29.60,SW,225,1.1,3.8,81,0.00,,,0.00,WUHU216HW,2013-05-21 16:52:00,
2013-05-21 11:57:00,62.3,56.3,29.60,WSW,248,0.4,4.7,81,0.00,,,0.00,WUHU216HW,2013-05-21 16:57:00,
2013-05-21 12:02:00,62.3,57.1,29.61,West,270,2.9,4.7,83,0.00,,,0.00,WUHU216HW,2013-05-21 17:02:00,
2013-05-21 12:07:00,61.2,56.7,29.61,WSW,248,1.1,6.0,85,0.00,,,0.00,WUHU216HW,2013-05-21 17:07:00,
2013-05-21 12:12:00,60.5,56.6,29.61,West,270,0.4,6.0,87,0.00,,,0.00,WUHU216HW,2013-05-21 17:12:00,
2013-05-21 12:17:00,60.7,57.2,29.61,West,270,1.3,2.9,88,0.00,,,0.00,WUHU216HW,2013-05-21 17:17:00,
2013-05-21 12:22:00,61.4,56.9,29.60,West,270,2.0,2.5,85,0.00,,,0.00,WUHU216HW,2013-05-21 17:22:00,
2013-05-21 12:27:00,61.9,57.3,29.61,West,270,2.5,2.9,85,0.00,,,0.00,WUHU216HW,2013-05-21 17:27:00,
2013-05-21 12:32:00,62.5,57.3,29.61,SW,225,2.5,3.6,83,0.00,,,0.00,WUHU216HW,2013-05-21 17:32:00,
2013-05-21 12:37:00,62.6,57.3,29.61,WSW,248,1.3,3.6,83,0.00,,,0.00,WUHU216HW,2013-05-21 17:37:00,
2013-05-21 12:42:00,63.0,57.7,29.61,West,270,0.2,2.5,83,0.00,,,0.00,WUHU216HW,2013-05-21 17:42:00,
2013-05-21 12:47:00,63.0,56.3,29.61,West,270,1.8,3.1,79,0.00,,,0.00,WUHU216HW,2013-05-21 17:47:00,
2013-05-21 12:52:00,63.0,56.0,29.61,West,270,1.8,3.6,78,0.00,,,0.00,WUHU216HW,2013-05-21 17:52:00,
2013-05-21 12:57:00,62.8,55.1,29.61,WSW,248,1.6,4.7,76,0.00,,,0.00,WUHU216HW,2013-05-21 17:57:00,
2013-05-21 13:02:00,62.8,55.4,29.61,SW,225,0.9,4.7,77,0.00,,,0.00,WUHU216HW,2013-05-21 18:02:00,
2013-05-21 13:07:00,63.0,55.3,29.61,West,270,1.1,4.5,76,0.00,,,0.00,WUHU216HW,2013-05-21 18:07:00,
2013-05-21 13:12:00,63.7,55.6,29.61,WNW,293,2.2,4.5,75,0.00,,,0.00,WUHU216HW,2013-05-21 18:12:00,
2013-05-21 13:17:00,64.3,55.8,29.61,WSW,248,2.5,2.5,74,0.00,,,0.00,WUHU216HW,2013-05-21 18:17:00,
2013-05-21 13:22:00,64.1,56.0,29.62,West,270,2.2,4.0,75,0.00,,,0.00,WUHU216HW,2013-05-21 18:22:00,
2013-05-21 13:27:00,63.7,55.6,29.62,West,270,1.6,4.7,75,0.00,,,0.00,WUHU216HW,2013-05-21 18:27:00,
2013-05-21 13:32:00,63.7,55.6,29.62,NNE,23,0.9,4.7,75,0.00,,,0.00,WUHU216HW,2013-05-21 18:32:00,
2013-05-21 13:37:00,63.7,56.0,29.62,SSE,158,0.9,3.4,76,0.00,,,0.00,WUHU216HW,2013-05-21 18:37:00,
2013-05-21 13:42:00,64.1,56.7,29.62,ESE,113,0.4,1.8,77,0.00,,,0.00,WUHU216HW,2013-05-21 18:42:00,
2013-05-21 13:47:00,64.3,57.6,29.62,East,90,0.9,1.6,79,0.00,,,0.00,WUHU216HW,2013-05-21 18:47:00,
2013-05-21 13:52:00,63.7,57.4,29.62,SSE,158,0.7,2.5,80,0.00,,,0.00,WUHU216HW,2013-05-21 18:52:00,
2013-05-21 13:57:00,63.5,56.9,29.63,ESE,113,0.2,2.5,79,0.00,,,0.00,WUHU216HW,2013-05-21 18:57:00,
2013-05-21 14:02:00,63.5,57.2,29.63,ESE,113,0.2,1.1,80,0.00,,,0.00,WUHU216HW,2013-05-21 19:02:00,
2013-05-21 14:07:00,63.7,57.4,29.62,SSE,158,0.9,1.6,80,0.00,,,0.00,WUHU216HW,2013-05-21 19:07:00,
2013-05-21 14:12:00,63.7,57.4,29.62,West,270,0.9,1.8,80,0.00,,,0.00,WUHU216HW,2013-05-21 19:12:00,
2013-05-21 14:17:00,63.7,57.1,29.62,South,180,1.1,2.0,79,0.00,,,0.00,WUHU216HW,2013-05-21 19:17:00,
2013-05-21 14:22:00,64.3,58.3,29.62,SSW,203,0.9,2.0,81,0.00,,,0.00,WUHU216HW,2013-05-21 19:22:00,
2013-05-21 14:27:00,65.0,58.7,29.63,SW,225,1.8,2.2,80,0.00,,,0.00,WUHU216HW,2013-05-21 19:27:00,
2013-05-21 14:32:00,64.4,57.4,29.63,SE,135,2.5,2.5,78,0.00,,,0.00,WUHU216HW,2013-05-21 19:32:00,
2013-05-21 14:37:00,63.7,57.4,29.63,ENE,68,0.9,3.6,80,0.00,,,0.00,WUHU216HW,2013-05-21 19:37:00,
2013-05-21 14:42:00,63.7,57.1,29.63,SSW,203,1.1,3.6,79,0.00,,,0.00,WUHU216HW,2013-05-21 19:42:00,
2013-05-21 14:47:00,63.9,57.2,29.63,West,270,1.1,2.7,79,0.00,,,0.00,WUHU216HW,2013-05-21 19:47:00,
2013-05-21 14:52:00,64.1,57.8,29.63,SE,135,1.8,3.6,80,0.00,,,0.00,WUHU216HW,2013-05-21 19:52:00,
2013-05-21 14:57:00,63.7,57.4,29.63,ESE,113,0.9,3.6,80,0.00,,,0.00,WUHU216HW,2013-05-21 19:57:00,
2013-05-21 15:02:00,63.5,56.9,29.63,SE,135,0.7,3.1,79,0.00,,,0.00,WUHU216HW,2013-05-21 20:02:00,
2013-05-21 15:07:00,63.4,56.7,29.63,East,90,0.7,3.1,79,0.00,,,0.00,WUHU216HW,2013-05-21 20:07:00,
2013-05-21 15:12:00,62.8,56.5,29.64,East,90,1.1,2.2,80,0.00,,,0.00,WUHU216HW,2013-05-21 20:12:00,
2013-05-21 15:17:00,62.5,56.2,29.64,NE,45,0.4,2.2,80,0.00,,,0.00,WUHU216HW,2013-05-21 20:17:00,
2013-05-21 15:22:00,62.3,56.3,29.64,South,180,0.4,2.2,81,0.00,,,0.00,WUHU216HW,2013-05-21 20:22:00,
2013-05-21 15:27:00,62.1,56.5,29.64,East,90,0.4,2.0,82,0.00,,,0.00,WUHU216HW,2013-05-21 20:27:00,
2013-05-21 15:32:00,61.9,56.3,29.64,SSE,158,0.4,2.0,82,0.00,,,0.00,WUHU216HW,2013-05-21 20:32:00,
2013-05-21 15:37:00,62.3,56.7,29.64,WSW,248,0.4,1.8,82,0.00,,,0.00,WUHU216HW,2013-05-21 20:37:00,
2013-05-21 15:42:00,63.2,57.6,29.65,East,90,0.4,0.9,82,0.00,,,0.00,WUHU216HW,2013-05-21 20:42:00,
2013-05-21 15:47:00,63.7,57.4,29.65,East,90,1.1,2.5,80,0.00,,,0.00,WUHU216HW,2013-05-21 20:47:00,
2013-05-21 15:52:00,63.4,57.4,29.64,NE,45,1.1,3.1,81,0.00,,,0.00,WUHU216HW,2013-05-21 20:52:00,
2013-05-21 15:57:00,63.5,57.6,29.64,WNW,293,0.4,3.1,81,0.00,,,0.00,WUHU216HW,2013-05-21 20:57:00,
2013-05-21 16:02:00,63.4,57.4,29.65,WSW,248,0.4,1.3,81,0.00,,,0.00,WUHU216HW,2013-05-21 21:02:00,
2013-05-21 16:07:00,63.4,55.6,29.65,WSW,248,3.8,5.1,76,0.00,,,0.00,WUHU216HW,2013-05-21 21:07:00,
2013-05-21 16:12:00,63.0,55.3,29.65,SW,225,2.5,5.1,76,0.00,,,0.00,WUHU216HW,2013-05-21 21:12:00,
2013-05-21 16:17:00,62.8,54.4,29.66,SW,225,4.7,5.1,74,0.00,,,0.00,WUHU216HW,2013-05-21 21:17:00,
2013-05-21 16:22:00,62.1,53.7,29.66,West,270,2.0,4.7,74,0.00,,,0.00,WUHU216HW,2013-05-21 21:22:00,
2013-05-21 16:27:00,61.9,53.9,29.66,West,270,1.8,4.7,75,0.00,,,0.00,WUHU216HW,2013-05-21 21:27:00,
2013-05-21 16:32:00,61.6,53.6,29.66,West,270,4.5,4.5,75,0.00,,,0.00,WUHU216HW,2013-05-21 21:32:00,
2013-05-21 16:37:00,61.0,54.6,29.67,West,270,2.7,4.5,79,0.01,,,0.01,WUHU216HW,2013-05-21 21:37:00,
2013-05-21 16:42:00,60.5,55.0,29.67,West,270,1.8,4.5,82,0.01,,,0.01,WUHU216HW,2013-05-21 21:42:00,
2013-05-21 16:47:00,59.9,55.1,29.67,West,270,4.7,4.7,84,0.02,,,0.02,WUHU216HW,2013-05-21 21:47:00,
2013-05-21 16:52:00,59.8,55.3,29.67,WSW,248,0.9,4.7,85,0.02,,,0.02,WUHU216HW,2013-05-21 21:52:00,
2013-05-21 16:57:00,59.4,54.9,29.67,West,270,1.6,4.7,85,0.03,,,0.03,WUHU216HW,2013-05-21 21:57:00,
2013-05-21 17:02:00,59.6,55.5,29.67,NW,315,0.4,1.6,86,0.03,,,0.03,WUHU216HW,2013-05-21 22:02:00,
2013-05-21 17:07:00,59.4,55.5,29.67,West,270,0.9,1.6,87,0.03,,,0.03,WUHU216HW,2013-05-21 22:07:00,
2013-05-21 17:12:00,59.2,55.1,29.67,WSW,248,0.0,1.6,86,0.03,,,0.03,WUHU216HW,2013-05-21 22:12:00,
2013-05-21 17:17:00,59.2,55.1,29.67,NE,45,0.0,1.3,86,0.03,,,0.03,WUHU216HW,2013-05-21 22:17:00,
2013-05-21 17:22:00,59.2,55.1,29.67,NE,45,0.0,0.4,86,0.03,,,0.03,WUHU216HW,2013-05-21 22:22:00,
2013-05-21 17:27:00,59.4,55.5,29.67,ENE,68,0.9,0.9,87,0.03,,,0.03,WUHU216HW,2013-05-21 22:27:00,
2013-05-21 17:32:00,59.4,55.3,29.67,ENE,68,0.0,0.9,86,0.02,,,0.03,WUHU216HW,2013-05-21 22:32:00,
2013-05-21 17:37:00,59.4,55.3,29.67,ENE,68,0.0,0.9,86,0.02,,,0.03,WUHU216HW,2013-05-21 22:37:00,
2013-05-21 17:42:00,59.2,55.4,29.67,ENE,68,0.4,1.1,87,0.02,,,0.03,WUHU216HW,2013-05-21 22:42:00,
2013-05-21 17:47:00,59.2,55.4,29.67,NNE,23,0.4,1.1,87,0.01,,,0.03,WUHU216HW,2013-05-21 22:47:00,
2013-05-21 17:52:00,59.2,55.4,29.67,ENE,68,0.0,0.7,87,0.00,,,0.03,WUHU216HW,2013-05-21 22:52:00,
2013-05-21 17:57:00,59.2,55.4,29.67,WNW,293,0.7,0.7,87,0.00,,,0.03,WUHU216HW,2013-05-21 22:57:00,
2013-05-21 18:02:00,59.0,55.5,29.67,NW,315,0.0,3.1,88,0.00,,,0.03,WUHU216HW,2013-05-21 23:02:00,
2013-05-21 18:07:00,58.7,55.2,29.67,NE,45,0.0,3.1,88,0.00,,,0.03,WUHU216HW,2013-05-21 23:07:00,
2013-05-21 18:12:00,58.7,55.2,29.67,WSW,248,1.1,2.5,88,0.00,,,0.03,WUHU216HW,2013-05-21 23:12:00,
2013-05-21 18:17:00,58.5,55.0,29.67,SE,135,0.0,2.5,88,0.00,,,0.03,WUHU216HW,2013-05-21 23:17:00,
2013-05-21 18:22:00,58.5,55.0,29.67,East,90,0.2,1.3,88,0.00,,,0.03,WUHU216HW,2013-05-21 23:22:00,
2013-05-21 18:27:00,58.1,54.3,29.67,WSW,248,1.1,1.3,87,0.00,,,0.03,WUHU216HW,2013-05-21 23:27:00,
2013-05-21 18:32:00,57.8,53.9,29.67,SE,135,0.7,1.6,87,0.00,,,0.03,WUHU216HW,2013-05-21 23:32:00,
2013-05-21 18:37:00,57.4,53.6,29.67,NW,315,1.6,1.6,87,0.00,,,0.03,WUHU216HW,2013-05-21 23:37:00,
2013-05-21 18:42:00,57.2,53.4,29.67,SE,135,0.2,1.6,87,0.00,,,0.03,WUHU216HW,2013-05-21 23:42:00,
2013-05-21 18:47:00,57.1,53.2,29.67,ESE,113,1.1,2.7,87,0.00,,,0.03,WUHU216HW,2013-05-21 23:47:00,
2013-05-21 18:52:00,56.7,53.2,29.68,North,0,1.8,2.7,88,0.00,,,0.03,WUHU216HW,2013-05-21 23:52:00,
2013-05-21 18:57:00,56.3,52.8,29.68,ENE,68,2.0,3.4,88,0.00,,,0.03,WUHU216HW,2013-05-21 23:57:00,
2013-05-21 19:02:00,56.2,52.7,29.68,NW,315,1.8,3.4,88,0.00,,,0.03,WUHU216HW,2013-05-22 00:02:00,
2013-05-21 19:07:00,55.8,52.3,29.68,SE,135,1.1,3.1,88,0.00,,,0.03,WUHU216HW,2013-05-22 00:07:00,
2013-05-21 19:12:00,55.6,52.1,29.68,WSW,248,0.9,2.5,88,0.00,,,0.03,WUHU216HW,2013-05-22 00:12:00,
2013-05-21 19:17:00,55.4,51.9,29.68,ENE,68,1.1,2.5,88,0.00,,,0.03,WUHU216HW,2013-05-22 00:17:00,
2013-05-21 19:22:00,55.1,51.6,29.68,ESE,113,0.7,2.5,88,0.00,,,0.03,WUHU216HW,2013-05-22 00:22:00,
2013-05-21 19:27:00,55.1,51.6,29.69,ENE,68,1.3,2.2,88,0.00,,,0.03,WUHU216HW,2013-05-22 00:27:00,
2013-05-21 19:32:00,54.7,51.2,29.69,NNE,23,0.4,1.8,88,0.00,,,0.03,WUHU216HW,2013-05-22 00:32:00,
2013-05-21 19:37:00,54.5,51.0,29.69,SSE,158,1.3,1.8,88,0.00,,,0.03,WUHU216HW,2013-05-22 00:37:00,
2013-05-21 19:42:00,54.2,51.0,29.69,SSE,158,2.9,2.9,89,0.00,,,0.03,WUHU216HW,2013-05-22 00:42:00,
2013-05-21 19:47:00,54.0,50.9,29.69,South,180,0.4,2.9,89,0.00,,,0.03,WUHU216HW,2013-05-22 00:47:00,
2013-05-21 19:52:00,53.8,50.7,29.70,WSW,248,1.3,2.5,89,0.00,,,0.03,WUHU216HW,2013-05-22 00:52:00,
2013-05-21 19:57:00,53.6,50.5,29.70,NNE,23,0.4,2.5,89,0.01,,,0.04,WUHU216HW,2013-05-22 00:57:00,
2013-05-21 20:02:00,53.6,50.5,29.70,WNW,293,0.2,1.3,89,0.01,,,0.04,WUHU216HW,2013-05-22 01:02:00,
2013-05-21 20:07:00,53.5,50.6,29.71,East,90,1.3,1.8,90,0.02,,,0.05,WUHU216HW,2013-05-22 01:07:00,
2013-05-21 20:12:00,53.3,50.4,29.71,East,90,0.4,1.8,90,0.02,,,0.05,WUHU216HW,2013-05-22 01:12:00,
2013-05-21 20:17:00,53.3,50.4,29.71,NE,45,0.9,2.0,90,0.03,,,0.06,WUHU216HW,2013-05-22 01:17:00,
2013-05-21 20:22:00,53.1,50.2,29.70,NE,45,0.4,2.0,90,0.03,,,0.06,WUHU216HW,2013-05-22 01:22:00,
2013-05-21 20:27:00,52.9,50.0,29.71,SE,135,2.7,2.7,90,0.04,,,0.07,WUHU216HW,2013-05-22 01:27:00,
2013-05-21 20:32:00,52.9,50.0,29.71,ENE,68,0.4,2.7,90,0.04,,,0.07,WUHU216HW,2013-05-22 01:32:00,
2013-05-21 20:37:00,52.7,50.1,29.71,SE,135,1.3,2.7,91,0.04,,,0.07,WUHU216HW,2013-05-22 01:37:00,
2013-05-21 20:42:00,52.6,50.0,29.71,SE,135,0.4,2.5,91,0.05,,,0.08,WUHU216HW,2013-05-22 01:42:00,
2013-05-21 20:47:00,52.6,50.0,29.71,East,90,0.2,1.8,91,0.05,,,0.08,WUHU216HW,2013-05-22 01:47:00,
2013-05-21 20:52:00,52.6,50.0,29.71,ESE,113,2.0,2.0,91,0.04,,,0.08,WUHU216HW,2013-05-22 01:52:00,
2013-05-21 20:57:00,52.6,50.0,29.71,ESE,113,0.7,2.0,91,0.04,,,0.08,WUHU216HW,2013-05-22 01:57:00,
2013-05-21 21:02:00,52.4,49.8,29.71,SSW,203,1.1,2.0,91,0.04,,,0.09,WUHU216HW,2013-05-22 02:02:00,
2013-05-21 21:07:00,52.4,49.8,29.71,ESE,113,0.4,2.5,91,0.04,,,0.09,WUHU216HW,2013-05-22 02:07:00,
2013-05-21 21:12:00,52.2,49.6,29.72,East,90,0.4,2.5,91,0.03,,,0.09,WUHU216HW,2013-05-22 02:12:00,
2013-05-21 21:17:00,52.2,49.6,29.72,SE,135,0.0,1.1,91,0.03,,,0.09,WUHU216HW,2013-05-22 02:17:00,
2013-05-21 21:22:00,52.2,49.6,29.72,South,180,1.1,2.0,91,0.04,,,0.10,WUHU216HW,2013-05-22 02:22:00,
2013-05-21 21:27:00,52.0,49.4,29.72,ESE,113,0.7,2.0,91,0.03,,,0.10,WUHU216HW,2013-05-22 02:27:00,
2013-05-21 21:32:00,52.0,49.4,29.72,ENE,68,0.2,1.6,91,0.03,,,0.10,WUHU216HW,2013-05-22 02:32:00,
2013-05-21 21:37:00,51.8,49.2,29.71,ENE,68,0.4,1.8,91,0.02,,,0.10,WUHU216HW,2013-05-22 02:37:00,
2013-05-21 21:42:00,51.7,49.1,29.72,NNE,23,2.2,2.2,91,0.03,,,0.11,WUHU216HW,2013-05-22 02:42:00,
2013-05-21 21:47:00,51.5,48.9,29.72,SW,225,1.1,2.2,91,0.03,,,0.11,WUHU216HW,2013-05-22 02:47:00,
2013-05-21 21:52:00,51.5,48.9,29.72,SSW,203,0.7,2.2,91,0.03,,,0.11,WUHU216HW,2013-05-22 02:52:00,
2013-05-21 21:57:00,51.3,48.7,29.72,ESE,113,1.3,2.0,91,0.02,,,0.11,WUHU216HW,2013-05-22 02:57:00,
2013-05-21 22:02:00,51.1,48.5,29.72,SSE,158,0.4,2.0,91,0.02,,,0.11,WUHU216HW,2013-05-22 03:02:00,
2013-05-21 22:07:00,51.1,48.5,29.72,ENE,68,0.4,2.2,91,0.02,,,0.11,WUHU216HW,2013-05-22 03:07:00,
2013-05-21 22:12:00,51.1,48.5,29.72,NE,45,0.2,2.2,91,0.02,,,0.11,WUHU216HW,2013-05-22 03:12:00,
2013-05-21 22:17:00,51.1,48.5,29.73,SW,225,0.9,1.8,91,0.02,,,0.11,WUHU216HW,2013-05-22 03:17:00,
2013-05-21 22:22:00,51.1,48.5,29.73,ENE,68,1.1,1.8,91,0.01,,,0.11,WUHU216HW,2013-05-22 03:22:00,
2013-05-21 22:27:00,51.1,48.5,29.73,SE,135,0.4,1.8,91,0.01,,,0.11,WUHU216HW,2013-05-22 03:27:00,
2013-05-21 22:32:00,51.1,48.5,29.73,SSW,203,0.2,1.8,91,0.01,,,0.11,WUHU216HW,2013-05-22 03:32:00,
2013-05-21 22:37:00,51.1,48.5,29.72,NE,45,0.2,1.1,91,0.01,,,0.11,WUHU216HW,2013-05-22 03:37:00,
2013-05-21 22:42:00,50.9,48.3,29.72,WNW,293,0.9,1.8,91,0.00,,,0.11,WUHU216HW,2013-05-22 03:42:00,
2013-05-21 22:47:00,50.8,48.2,29.72,West,270,1.6,1.8,91,0.00,,,0.11,WUHU216HW,2013-05-22 03:47:00,
2013-05-21 22:52:00,50.8,48.2,29.72,SW,225,2.2,2.5,91,0.00,,,0.11,WUHU216HW,2013-05-22 03:52:00,
2013-05-21 22:57:00,50.6,48.0,29.71,ESE,113,0.4,2.5,91,0.00,,,0.11,WUHU216HW,2013-05-22 03:57:00,
2013-05-21 23:01:00,50.6,48.0,29.72,SE,135,0.2,2.5,91,0.00,,,0.11,WUHU216HW,2013-05-22 04:01:00,
2013-05-21 23:06:00,50.4,47.8,29.72,ESE,113,0.4,1.6,91,0.00,,,0.11,WUHU216HW,2013-05-22 04:06:00,
2013-05-21 23:11:00,50.4,47.8,29.72,SE,135,0.4,1.8,91,0.00,,,0.11,WUHU216HW,2013-05-22 04:11:00,
2013-05-21 23:16:00,50.2,47.6,29.72,ESE,113,0.7,2.2,91,0.00,,,0.11,WUHU216HW,2013-05-22 04:16:00,
2013-05-21 23:21:00,50.2,47.6,29.72,North,0,1.8,2.9,91,0.00,,,0.11,WUHU216HW,2013-05-22 04:21:00,
2013-05-21 23:26:00,50.0,47.4,29.72,East,90,0.2,2.9,91,0.00,,,0.11,WUHU216HW,2013-05-22 04:26:00,
2013-05-21 23:31:00,50.0,47.4,29.72,NE,45,0.4,1.8,91,0.00,,,0.11,WUHU216HW,2013-05-22 04:31:00,
2013-05-21 23:36:00,50.0,47.4,29.72,ENE,68,0.9,2.5,91,0.00,,,0.11,WUHU216HW,2013-05-22 04:36:00,
2013-05-21 23:41:00,50.0,47.4,29.72,SE,135,1.1,2.5,91,0.00,,,0.11,WUHU216HW,2013-05-22 04:41:00,
2013-05-21 23:46:00,49.9,47.3,29.72,SE,135,0.2,2.0,91,0.00,,,0.11,WUHU216HW,2013-05-22 04:46:00,
2013-05-21 23:51:00,49.9,47.3,29.72,ESE,113,1.1,2.0,91,0.00,,,0.11,WUHU216HW,2013-05-22 04:51:00,
2013-05-21 23:56:00,49.9,47.3,29.73,South,180,1.8,1.8,91,0.00,,,0.11,WUHU216HW,2013-05-22 04:56:00,